Location: Mountain_View
(35.6670°N, 81.4000°W)
Time: 18:41:34
(UTC-04:00)

Daily predictions for brighter satellites

Satellite Brightness Start Highest point End
(mag) Time Altitude Azimuth Time Altitude Azimuth Time Altitude Azimuth
Meteor 1-13 Rocket 4.3 20:54:32 10° S 21:00:22 79° E 21:06:06 10° N
Lacrosse 5 4.5 20:56:57 10° W 21:01:06 25° NW 21:05:15 10° NNE
OTV 4 1.8 21:02:58 10° W 21:05:36 29° SSW 21:08:14 10° SE
Cosmos 1743 3.2 21:05:01 10° N 21:08:40 42° E 21:12:19 10° SSE
Cosmos 1726 Rocket 4.0 21:07:52 10° N 21:12:09 46° E 21:16:23 10° SSE
Cosmos 2233 Rocket 4.0 21:06:02 10° N 21:12:18 86° E 21:18:29 10° S
Cosmos 158 Rocket 4.2 21:08:07 10° SSW 21:13:08 77° WNW 21:18:20 10° NNE
ALOS 2.3 21:08:40 10° SSE 21:13:20 88° E 21:18:01 10° NNW
Okean 2 4.0 21:10:18 10° SSE 21:14:10 38° E 21:18:02 10° NNE
SeaSat 1 3.9 21:10:45 10° ESE 21:14:35 23° NE 21:18:25 10° N
CZ-3C R/B 4.0 21:09:25 10° SW 21:18:25 17° SSW 21:22:05 10° SSE
YAOGAN 11 4.1 21:16:02 10° SSE 21:20:25 82° ENE 21:24:46 10° N
Cosmos 1464 Rocket 4.4 21:14:58 10° N 21:20:48 44° E 21:26:38 10° SSE
Cosmos 2058 Rocket 3.4 21:18:56 10° N 21:23:09 45° E 21:27:10 11° SSE
Meteor 1-19 Rocket 4.2 21:17:49 10° S 21:23:27 86° E 21:29:04 10° N
Cosmos 2098 Rocket 3.4 21:20:35 10° NNW 21:23:56 54° W 21:28:03 10° S
Meteor 2-4 Rocket 3.8 21:19:19 10° S 21:25:03 64° E 21:30:55 10° NNE
Cosmos 2333 Rocket 4.1 21:23:15 10° SW 21:28:21 34° WNW 21:33:29 10° N
Cosmos 2251 Rocket 4.0 21:24:01 10° SSW 21:29:16 68° WNW 21:34:37 10° NNE
ATLAS 3B R/B 4.3 21:29:52 13° SE 21:32:52 16° ESE 21:37:16 10° ENE
deb Chang Zheng 4 3.5 21:29:19 10° NNE 21:33:44 82° ESE 21:38:06 10° S
Cosmos 2297 3.7 21:28:22 10° NNW 21:34:06 72° ENE 21:39:04 14° SSE
Milstar 3 Cent rocket 3.4 21:28:33 10° W 21:35:51 35° SSW 21:39:27 16° SE
CZ-2C R/B 0.9 21:36:24 14° S 21:38:14 58° W 21:40:31 10° NNW
Cosmos 2034 Rocket 4.4 21:32:37 10° N 21:38:43 46° E 21:43:36 16° SSE
H-2A R/B 3.9 21:35:24 10° S 21:39:09 43° W 21:42:57 10° NNW
ERS-1 Rocket 3.0 21:37:11 10° SSE 21:42:12 87° WSW 21:47:14 10° NNW
Envisat 3.4 21:39:38 17° SE 21:43:22 48° ENE 21:48:14 10° N
BREEZE-M DEB (TANK) 2.8 21:37:35 10° SW 21:44:13 88° NW 21:46:43 10° NE
FENGYUN 3A 4.5 21:39:26 10° S 21:44:36 49° W 21:49:49 10° NNW
OAO 3 Copernicus 4.2 21:42:06 10° W 21:47:10 80° S 21:50:52 18° ESE
Cosmos 1606 Rocket 4.3 21:43:37 10° NNW 21:47:56 53° W 21:52:13 10° S
Cosmos 1110 Rocket 4.1 21:42:47 10° NNW 21:48:06 79° WSW 21:52:38 14° S
USA 234 4.1 21:43:14 12° E 21:48:43 41° NE 21:54:46 10° NNW
YAOGAN 6 4.2 21:50:25 18° E 21:51:20 20° ENE 21:54:07 10° NNE
H-2A R/B 2.1 21:48:20 14° S 21:51:59 78° WSW 21:56:18 10° NNW
Cosmos 1626 Rocket 3.5 21:57:46 16° S 22:01:19 69° E 22:05:43 10° NNE
Abrixas rocket 3.3 21:59:02 10° NW 22:02:16 39° NNE 22:03:38 26° E
Atlas Centaur 2 3.2 22:04:44 10° SW 22:12:07 48° SSE 22:18:15 18° E
Cosmos 2278 Rocket 4.2 22:10:38 10° NW 22:15:02 24° W 22:19:26 10° SSW
Meteor 1-15 Rocket 4.5 22:12:30 10° NNW 22:18:03 68° W 22:22:12 18° S
Cosmos 2228 3.5 22:14:27 10° NNW 22:18:48 59° W 22:21:31 22° SSW
Aureole 2 Rocket 4.2 22:16:30 10° SW 22:20:15 36° WNW 22:23:42 10° N
H-2A R/B 3.6 22:19:20 17° E 22:20:21 18° ENE 22:23:40 10° NNE
PSLV R/B 3.5 22:17:02 10° WSW 22:20:35 74° NNW 22:22:27 26° ENE
Cosmos 1939 Rocket 3.8 22:18:34 20° SSW 22:21:12 46° W 22:25:13 10° NNW
COSMOS 2455 2.8 22:15:30 10° SSW 22:21:25 67° ESE 22:27:23 10° NNE
CZ-4 R/B 4.0 22:20:51 10° NNE 22:25:45 55° E 22:27:22 38° SSE
SPOT 1/Viking Rocket 3.6 22:26:44 38° SE 22:28:32 61° ENE 22:33:37 10° N
SPOT 5 2.9 22:26:56 30° S 22:29:01 63° W 22:33:21 10° NNW
Cosmos 2369 Rocket 3.5 22:24:57 10° N 22:29:41 26° ENE 22:31:20 23° E
ARGOS 3.5 22:29:23 37° ESE 22:31:07 51° ENE 22:36:22 10° N
SL-16 R/B 4.4 22:27:21 10° WSW 22:31:59 26° WNW 22:36:39 10° N
Cosmos 1666 4.1 22:29:15 10° NNW 22:32:50 36° W 22:34:49 21° SW
Cosmos 1190 Rocket 4.3 22:37:26 43° ESE 22:37:49 43° ESE 22:42:51 10° NNE
NOAA 11 4.4 22:37:27 42° ESE 22:38:56 55° ENE 22:44:13 10° N
Tsikada Rocket 4.4 22:33:55 10° SSW 22:40:14 63° W 22:46:36 10° N
Geosat 3.9 22:35:20 10° NNE 22:40:21 67° ESE 22:42:04 40° S
DEBRIS 3.3 22:42:39 10° NW 22:45:19 40° WNW 22:45:19 40° WNW
SeaSat 1 3.3 22:50:09 31° SSW 22:51:50 42° WSW 22:56:31 10° NW
Cosmos 1758 Rocket 4.2 22:53:08 40° ENE 22:53:08 40° ENE 22:56:34 10° NNE
Lacrosse 4 Rocket 3.3 22:55:02 18° NE 22:55:02 18° NE 22:56:20 10° NE
SL-08 RB Rocket 3.5 22:55:15 71° ESE 22:55:35 75° ENE 23:00:08 10° N
Terra 2.6 22:56:20 36° ENE 22:56:20 36° ENE 23:00:42 10° N
CARTOSAT-1 4.5 22:57:34 36° ENE 22:57:34 36° ENE 23:01:09 10° N
Cosmos 1066 Rocket 4.1 22:57:30 48° S 22:59:13 87° E 23:05:00 10° N
Cosmos 1515 4.3 22:58:52 48° WSW 22:59:16 50° W 23:03:03 10° N
CZ-4B R/B 4.5 22:54:46 10° N 22:59:35 45° WNW 23:03:35 15° SW
Cosmos 1346 Rocket 3.5 23:03:05 46° NNE 23:03:05 46° NNE 23:05:57 10° NNE
Cosmos 1825 Rocket 3.9 23:10:25 55° WSW 23:10:54 59° W 23:15:18 10° N
Cosmos 1461 4.0 23:07:32 10° NW 23:11:08 36° WSW 23:11:08 36° WSW
Cosmos 2142 Rocket 4.4 23:07:50 10° N 23:14:10 84° W 23:15:38 56° S
Meteor 1-21 4.1 23:19:01 71° SE 23:19:27 75° E 23:25:15 10° NNE
ATLAS 3B R/B 2.9 23:16:52 19° SSW 23:22:44 88° WNW 23:30:22 10° NNE
Cosmos 1943 3.6 23:23:34 32° SW 23:26:03 59° WNW 23:31:40 10° NNE
Cosmos 1634 Rocket 4.2 23:20:22 10° NNW 23:26:27 63° W 23:27:54 49° SW
Cosmos 407 Rocket 3.5 23:27:23 76° WSW 23:27:41 79° WNW 23:32:57 10° NNE
USA 234 3.4 23:30:35 51° SSW 23:31:32 55° SW 23:37:58 10° NW
Cosmos 1943 Rocket 2.9 23:37:13 10° N 23:42:15 40° ENE 23:42:15 40° ENE
Cosmos 1954 Rocket 4.3 23:47:02 64° NNE 23:47:02 64° NNE 23:51:32 10° NNE
Cosmos 2279 Rocket 4.0 23:46:02 10° NNW 23:52:14 69° W 23:52:42 67° WSW
